User: anonymous   Login
Location: Gloden
(48.4833°N, 15.3167°E)
Time: 08:48:43
(UTC+00:00)
Language:

Cosmos 1666 - Orbit

View from above orbital plane
View from above orbital plane
View from above satellite
View from above satellite

Ground track
Ground track

The orbit data is extracted from the following two-line orbital elements,

1 15889U 85058A   20049.59047270  .00000339  00000-0  14695-4 0  9990
2 15889  82.4870 106.0253 0015311 264.0480  95.9009 15.18776628890307
Epoch (UTC): 18 February 2020 14:10:16
Eccentricity: 0.0015311
inclination: 82.4870°
perigee height: 499 km
apogee height: 520 km
right ascension of ascending node: 106.0253°
argument of perigee: 264.0480°
revolutions per day: 15.18776628
mean anomaly at epoch: 95.9009°
orbit number at epoch: 89030

The dashed part of the orbit path shows where the satellite is in the earth's shadow,  

DLR